User: anonymous   Login
Location: Unspecified
(0.0000°N, 0.0000°E)
Time: 01:03:57
(UTC+00:00)
Language:

STARLINK-11649 [DTC] - Orbit

View from above orbital plane
View from above orbital plane
View from above satellite
View from above satellite

Ground track
Ground track

The orbit is defined by the following mean orbital elements,

1 64069U          26145.64090677 +.00000000 +00000-0 +12138-2 0 00002
2 64069  43.0027 355.0061 0002775 254.6595 105.3966 15.70845733    03
Epoch (UTC): 25 May 2026 15:22:54
Eccentricity: 0.0002775
inclination: 43.0027°
perigee height: 355 km
apogee height: 358 km
right ascension of ascending node: 355.0061°
argument of perigee: 254.6595°
revolutions per day: 15.70845733
mean anomaly at epoch: 105.3966°

The dashed part of the orbit path shows where the satellite is in the earth's shadow,  

DLR